Location: Columbia
(38.9520°N, 92.3340°W)
Time: 08:54:53
(UTC-05:00)

Cosmos 1633 - Visible Passes

Search period start: 21 June 2018 00:00
Search period end: 01 July 2018 00:00
Orbit: 469 x 485 km, 82.5° (Epoch: 20 June)

Date Brightness Start Highest point End Pass type
(mag) Time Alt. Az. Time Alt. Az. Time Alt. Az.
21 Jun 4.9 03:20:15 13° SE 03:22:14 19° E 03:24:48 10° NE visible
21 Jun 4.0 04:54:29 12° SW 04:56:59 21° WNW 04:59:50 10° NNW visible
22 Jun 5.4 02:54:33 10° E 02:55:21 11° E 02:56:09 10° ENE visible
22 Jun 3.2 04:27:53 21° SW 04:29:49 37° W 04:33:13 10° N visible
23 Jun 2.5 04:01:17 34° SSW 04:02:42 72° W 04:06:20 10° N visible
24 Jun 2.9 03:34:39 40° SSE 03:35:39 59° E 03:39:14 10° NNE visible
25 Jun 3.9 03:07:59 29° ESE 03:08:39 31° E 03:11:54 10° NNE visible
25 Jun 4.7 04:42:12 11° W 04:43:40 13° WNW 04:45:27 10° NW visible
26 Jun 4.7 02:41:19 18° E 02:41:42 18° E 02:44:15 10° NE visible
26 Jun 4.0 04:15:32 20° W 04:16:26 22° WNW 04:19:21 10° NNW visible
27 Jun 5.4 02:14:37 10° E 02:14:49 10° E 02:15:26 10° ENE visible
27 Jun 3.2 03:48:50 37° W 03:49:16 39° W 03:52:42 10° N visible
28 Jun 2.4 03:22:07 74° W 03:22:09 74° W 03:25:48 10° N visible
29 Jun 3.1 02:55:23 55° ENE 02:55:23 55° ENE 02:58:41 10° NNE visible
30 Jun 4.2 02:28:38 29° ENE 02:28:38 29° ENE 02:31:20 10° NNE visible
30 Jun 4.7 04:02:51 14° WNW 04:03:05 14° WNW 04:04:59 10° NW visible
